This is the latest recevied weather packets stored in our database for station/object WW6Q. If no packets are shown the sender has not sent any weather packets the latest 10 day(s).
| Time | Temp. | Humidity | Pressure | Rain* | Wind** | Luminosity | Snow |
|---|---|---|---|---|---|---|---|
| 1788440238 | 26.11° C | 84% | 1014.7 hPa | 0 mm | - | 113 W/m² | - |
| 1788439934 | 26.11° C | 83% | 1014.7 hPa | 0 mm | - | 104 W/m² | - |
| 1788439632 | 25.56° C | 85% | 1014.8 hPa | 0 mm | - | 108 W/m² | - |
| 1788439329 | 25.56° C | 84% | 1015.2 hPa | 0 mm | - | 106 W/m² | - |
| 1788439027 | 25.56° C | 87% | 1015 hPa | 0 mm | - | 93 W/m² | - |
| 1788438726 | 25° C | 86% | 1015.2 hPa | 0 mm | - | 74 W/m² | - |
| 1788438425 | 25° C | 88% | 1015.2 hPa | 0 mm | - | 71 W/m² | - |
| 1788438120 | 25° C | 88% | 1015.1 hPa | 0 mm | - | 68 W/m² | - |
| 1788437818 | 24.44° C | 88% | 1015.1 hPa | 0 mm | - | 66 W/m² | - |
| 1788437515 | 24.44° C | 90% | 1015.1 hPa | 0 mm | - | 57 W/m² | - |
| 1788437214 | 23.89° C | 91% | 1015.2 hPa | 0 mm | - | 49 W/m² | - |
| 1788436909 | 23.89° C | 91% | 1015.1 hPa | 0 mm | - | 44 W/m² | - |
| 1788436607 | 23.89° C | 93% | 1015.1 hPa | 0 mm | - | 37 W/m² | - |
| 1788436303 | 23.89° C | 94% | 1015.2 hPa | 0 mm | - | 31 W/m² | - |
| 1788435997 | 23.89° C | 94% | 1015 hPa | 0 mm | - | 25 W/m² | - |
| 1788435693 | 23.33° C | 94% | 1015 hPa | 0 mm | - | 21 W/m² | - |
| 1788435388 | 23.33° C | 95% | 1014.8 hPa | 0 mm | - | 17 W/m² | - |
| 1788435084 | 23.33° C | 95% | 1014.9 hPa | 0 mm | - | 13 W/m² | - |
| 1788434780 | 23.33° C | 96% | 1015 hPa | 0 mm | - | 10 W/m² | - |
| 1788434480 | 23.33° C | 96% | 1014.9 hPa | 0 mm | - | 7 W/m² | - |
| 1788434179 | 23.33° C | 96% | 1014.9 hPa | 0 mm | - | 5 W/m² | - |
| 1788433875 | 23.33° C | 97% | 1014.7 hPa | 0 mm | - | 4 W/m² | - |
| 1788433571 | 23.33° C | 97% | 1014.7 hPa | 0 mm | - | 2 W/m² | - |
| 1788433266 | 23.33° C | 97% | 1014.7 hPa | 0 mm | - | 1 W/m² | - |
| 1788432961 | 23.33° C | 97% | 1014.6 hPa | 0 mm | - | 0 W/m² | - |
* Rain latest hour (hover to see other rain measurements)
** Current wind speed in m/s (hover to see current wind gust speed)